Weather History for Spokane, WA

Change the Weather History Date:

Friday, May 4, 2012

  Actual Average Record
Temperature  
Mean Temperature 45 °F 52 °F  
Max Temperature 51 °F 63 °F 84 °F (1970)
Min Temperature 39 °F 40 °F 28 °F (1982)
Degree Days  
Heating Degree Days 20 14  
Month to date heating degree days 81 56  
Since 1 July heating degree days 6063 6192  
Cooling Degree Days 0 0  
Month to date cooling degree days 0 0  
Year to date cooling degree days 2 0  
Moisture  
Dew Point 35 °F    
Average Humidity 68    
Maximum Humidity 85    
Minimum Humidity 50    
Precipitation  
Precipitation 0.00 in 0.04 in 0.75 in (1888)
Month to date precipitation 0.41 0.16  
Year to date precipitation 9.85 6.17  
Snow  
Snow 0.00 in 0.00 in 0.30 in (1981)
Month to date snowfall 0.0 0.0  
Since 1 July snowfall 36.8 44.8  
Snow Depth -    
Sea Level Pressure  
Sea Level Pressure 30.02 in    
Wind  
Wind Speed 15 mph (SSW)    
Max Wind Speed 24 mph    
Max Gust Speed 30 mph    
Visibility 10 miles    
Events      
T = Trace of Precipitation, MM = Missing Value Source: NWS Daily Summary

Daily Weather History Graph

Daily Weather History Graph

Search for Another Location

Airport:

Trip Planner

Search our weather history database for the weather conditions in past years. The results will help you decide how hot, cold, wet, or windy it might be!

Date:

Astronomy

May. 04, 2012 Rise Set
Actual Time 5:27 AM PDT 8:07 PM PDT
Civil Twilight 4:52 AM PDT 8:42 PM PDT
Nautical Twilight 4:08 AM PDT 9:26 PM PDT
Astronomical Twilight 3:16 AM PDT 10:19 PM PDT
Moon 6:48 PM PDT (5/4) 4:17 AM PDT (5/4)
Length of Visible Light 15h 50m
Length of Day
14h 39m
Waxing Gibbous, 97% of the Moon is Illuminated
May 4
Waxing Gibbous
May 5
Full
May 12
Last Quarter
May 20
New
May 28
First Quarter

Hourly Weather History & Observations

Time (PDT) Temp. Windchill Dew Point Humidity Pressure Visibility Wind Dir Wind Speed Gust Speed Precip Events Conditions
12:53 AM 43.0 °F 35.4 °F 37.9 °F 82% 29.86 in 10.0 mi SSW 16.1 mph 26.5 mph N/A   Mostly Cloudy
1:53 AM 43.0 °F 34.0 °F 37.9 °F 82% 29.88 in 10.0 mi SSW 21.9 mph 26.5 mph N/A   Overcast
2:53 AM 43.0 °F 34.5 °F 37.0 °F 80% 29.89 in 10.0 mi SSW 19.6 mph 28.8 mph N/A   Overcast
3:53 AM 41.0 °F 32.5 °F 36.0 °F 82% 29.92 in 10.0 mi SSW 17.3 mph 25.3 mph N/A   Partly Cloudy
4:53 AM 39.9 °F 32.9 °F 35.1 °F 83% 29.95 in 10.0 mi SSW 11.5 mph - N/A   Partly Cloudy
5:53 AM 39.0 °F 31.4 °F 36.0 °F 89% 29.96 in 10.0 mi SSW 12.7 mph - N/A   Mostly Cloudy
6:53 AM 39.0 °F 34.0 °F 36.0 °F 89% 29.99 in 10.0 mi South 6.9 mph - N/A   Mostly Cloudy
7:53 AM 39.9 °F 33.4 °F 36.0 °F 86% 30.00 in 10.0 mi South 10.4 mph - N/A   Overcast
8:53 AM 43.0 °F 36.4 °F 36.0 °F 76% 30.02 in 10.0 mi SSW 12.7 mph - N/A   Overcast
9:53 AM 45.0 °F 38.9 °F 37.0 °F 74% 30.03 in 10.0 mi SSW 12.7 mph 19.6 mph N/A   Overcast
10:53 AM 46.9 °F - 35.1 °F 63% 30.04 in 10.0 mi South 13.8 mph - N/A   Overcast
11:53 AM 48.0 °F - 34.0 °F 58% 30.04 in 10.0 mi SW 13.8 mph - N/A   Overcast
12:53 PM 50.0 °F - 34.0 °F 54% 30.04 in 10.0 mi SSW 17.3 mph 21.9 mph N/A   Overcast
1:53 PM 50.0 °F - 34.0 °F 54% 30.04 in 10.0 mi South 16.1 mph - N/A   Overcast
2:53 PM 50.0 °F - 34.0 °F 54% 30.04 in 10.0 mi SSW 16.1 mph 23.0 mph N/A   Overcast
3:53 PM 51.1 °F - 33.1 °F 50% 30.04 in 10.0 mi SW 13.8 mph 23.0 mph N/A   Overcast
4:53 PM 50.0 °F - 33.1 °F 52% 30.06 in 10.0 mi SSW 16.1 mph 21.9 mph N/A   Overcast
5:53 PM 48.9 °F - 32.0 °F 52% 30.08 in 10.0 mi SSW 17.3 mph - N/A   Overcast
7:53 PM 46.9 °F - 34.0 °F 61% 30.10 in 10.0 mi SSW 18.4 mph - N/A   Mostly Cloudy
8:53 PM 45.0 °F 38.9 °F 33.1 °F 63% 30.12 in 10.0 mi SSW 12.7 mph - N/A   Mostly Cloudy
9:53 PM 45.0 °F 38.9 °F 32.0 °F 60% 30.14 in 10.0 mi SSW 12.7 mph - N/A   Mostly Cloudy
10:53 PM 43.0 °F 36.4 °F 33.1 °F 68% 30.14 in 10.0 mi SSW 12.7 mph - N/A   Mostly Cloudy
11:53 PM 41.0 °F 33.9 °F 34.0 °F 76% 30.15 in 10.0 mi SSW 12.7 mph - N/A   Mostly Cloudy